SCP
2 2 2 2 2 2 2 2 2 2 1 1 1 1 1 1 1 1 1 1 1 0 0 0 0 0 0 0 0 0 0 0 0 0 0 0 0 0 0 0 0 0 0
2 2 2 2 2 2 2 2 2 2 1 1 1 1 1 1 1 1 1 1 1 1 0 0 0 0 0 0 0 0 0 0 0 0 0 0 0 0 0 0 0 0 0
2 2 2 2 2 2 2 2 2 2 1 1 1 1 1 1 1 1 1 1 1 1 1 1 1 1 1 0 0 0 0 0 0 0 0 0 0 0 0 0 0 0 0
2 2 2 2 2 2 2 2 2 2 2 1 1 1 1 1 1 1 1 1 1 1 1 1 1 1 1 0 0 0 0 0 0 0 0 0 0 0 0 0 0 0 0
1 2 2 2 2 1 1 2 2 2 1 1 1 1 1 1 1 1 1 1 1 0 0 1 1 1 0 0 0 0 0 0 0 0 0 0 0 0 0 0 0 0 0
1 2 2 2 2 1 1 2 2 2 2 1 1 1 1 1 1 1 1 1 1 0 0 0 1 1 0 0 0 0 0 0 0 0 0 0 0 0 0 0 0 0 0
1 1 2 2 2 2 2 2 2 2 2 1 1 1 1 1 1 1 1 1 1 1 0 1 1 1 0 0 1 0 0 0 0 0 0 0 0 0 0 0 0 0 0
1 1 2 2 2 2 2 2 2 2 2 2 1 1 1 1 1 1 1 1 1 1 1 1 1 1 0 0 1 0 0 0 0 0 0 0 0 0 0 0 0 0 0
1 1 1 1 2 2 2 2 2 2 2 2 2 1 1 1 1 1 1 1 1 1 1 1 1 1 0 0 0 0 0 0 0 0 0 0 0 0 0 0 0 0 0
1 1 1 1 1 1 2 2 2 2 2 2 2 1 1 1 1 1 1 1 1 1 1 1 1 1 1 1 0 0 0 0 0 0 0 0 0 0 0 0 0 0 0
1 1 1 1 1 1 2 2 2 2 2 2 2 1 1 1 1 1 1 1 1 1 1 1 1 1 1 1 0 0 0 0 0 0 0 0 0 0 0 0 0 0 0
1 1 1 1 1 1 1 2 2 2 2 2 1 1 1 1 1 1 1 1 1 1 1 1 1 1 1 1 1 0 0 0 0 0 0 0 0 0 0 0 0 0 0
1 1 1 1 1 1 1 1 2 2 2 1 1 1 1 1 1 1 1 1 1 1 1 1 1 1 1 1 1 0 0 0 0 0 0 0 0 0 0 0 0 0 0
1 1 1 1 1 1 1 1 1 1 1 1 1 1 1 1 1 1 1 1 1 1 1 1 1 1 1 1 1 1 1 0 0 0 0 0 0 0 0 0 0 0 0
1 1 1 1 1 1 1 1 1 1 1 1 1 1 1 1 1 1 1 1 1 1 1 1 1 1 1 1 1 1 1 1 1 0 0 0 0 0 0 0 0 0 0
1 1 1 1 1 1 1 1 1 1 2 2 1 1 1 1 1 1 1 1 1 1 1 1 1 1 1 0 0 1 1 1 1 0 0 0 0 0 0 0 0 0 0
1 1 1 1 1 1 1 1 1 1 1 1 1 1 1 1 1 1 1 1 1 1 1 1 1 1 1 0 0 0 0 1 0 0 0 0 0 0 0 0 0 0 0
1 1 1 1 1 1 1 1 1 1 1 1 1 1 1 1 1 1 2 2 1 1 1 1 1 1 1 0 0 0 0 0 0 0 0 0 0 0 0 0 0 0 0
1 1 1 1 1 1 1 1 1 1 1 1 1 1 1 1 1 1 2 2 1 1 1 1 1 1 1 0 0 0 0 0 0 0 0 0 0 0 0 0 0 0 0
1 1 1 1 1 1 1 1 1 1 1 1 1 1 1 1 1 1 1 1 1 1 1 1 1 1 1 0 0 0 0 0 0 0 0 0 0 0 0 0 0 0 0
1 1 1 1 1 1 1 1 1 1 1 1 1 1 1 1 1 1 1 1 1 1 1 1 1 1 1 0 0 0 0 0 0 0 0 0 0 0 0 0 0 0 0
1 1 1 1 1 1 1 1 1 1 1 1 1 1 1 1 1 1 1 1 1 1 1 1 1 1 1 0 0 0 0 0 0 0 0 0 0 0 0 0 0 0 0
1 1 1 1 1 1 1 1 1 1 1 1 1 1 1 1 1 1 1 1 1 1 1 1 1 1 0 0 0 0 0 0 0 0 0 0 0 0 0 0 0 0 0
1 1 1 1 1 1 1 1 1 1 1 1 1 1 1 1 1 1 1 1 1 1 1 0 0 0 0 0 0 0 0 0 0 0 0 0 0 0 0 0 0 0 0
1 1 1 1 1 1 1 1 1 1 1 1 1 1 1 1 1 1 1 0 0 0 0 0 0 0 0 0 0 0 0 0 0 0 0 0 0 0 0 0 0 0 0
0 0 0 0 1 1 1 1 1 1 1 1 1 1 1 1 1 0 0 0 0 0 0 0 0 0 0 0 0 0 0 0 0 0 0 0 0 0 0 0 0 0 0
Wind_Speed
15 15 14 14 13 12 12 11 10 9 7 6 6 5 4 3 3 4 6 6 5 5 3 2 3 2 1 2 2 2 2 2 1 0 1 1 3 2 2 2 3 3 4
14 14 14 14 14 13 12 11 10 10 9 6 4 4 4 4 4 3 5 6 5 5 5 3 3 3 2 2 2 2 1 1 1 1 1 1 1 1 3 3 3 3 3
16 15 15 14 15 14 14 12 11 11 10 8 5 4 4 3 4 4 5 5 6 5 3 4 3 3 3 3 3 3 3 2 1 1 0 0 0 1 1 3 3 3 3
16 16 16 15 15 14 13 11 11 10 9 9 8 8 7 6 5 5 4 5 5 5 4 4 4 3 2 4 4 4 2 2 2 1 1 1 1 1 1 1 2 3 3
15 16 16 15 14 14 14 12 11 10 10 9 8 7 6 5 4 5 5 5 5 5 5 5 4 4 3 4 3 3 2 1 2 1 1 2 1 2 2 2 2 2 3
14 15 15 14 13 13 13 13 12 11 11 10 9 8 7 6 6 6 6 5 4 4 5 5 4 4 3 3 3 3 3 2 1 1 1 1 1 2 2 2 2 2 3
13 14 15 15 14 13 13 13 13 12 11 11 10 9 8 7 6 6 6 6 5 5 6 6 5 4 4 4 4 3 2 3 2 2 2 1 1 1 1 1 1 1 2
12 13 14 14 14 14 12 13 13 12 12 11 10 8 7 6 6 7 6 6 4 5 7 6 6 5 5 5 4 3 4 3 3 3 2 1 2 1 1 1 1 1 1
10 11 12 12 12 12 12 13 13 12 12 11 10 9 9 8 7 7 6 5 4 5 7 8 7 6 6 5 4 3 3 3 3 3 3 3 2 1 1 1 1 1 1
9 10 10 11 10 11 11 12 12 12 11 11 10 10 9 8 6 6 7 6 6 5 6 7 6 6 6 5 4 3 4 4 3 3 2 2 2 2 2 2 1 1 1
9 10 9 8 10 11 11 11 11 11 11 10 10 8 9 8 8 7 7 7 6 6 6 6 6 6 6 5 5 5 5 5 4 4 4 4 3 2 2 2 2 2 1
8 9 9 9 9 9 11 11 10 11 11 10 9 8 8 8 8 8 7 7 6 6 7 6 6 7 6 6 5 6 5 5 5 5 4 4 4 3 2 2 2 1 1
7 7 7 7 8 9 9 10 10 10 10 10 10 9 9 9 8 8 7 7 7 7 7 7 7 6 6 6 6 5 4 5 5 5 4 4 3 3 2 2 2 1 2
7 7 6 6 6 7 7 8 8 8 9 9 9 9 8 8 8 7 7 8 8 7 7 7 6 6 6 6 5 5 4 4 4 4 4 4 4 3 3 3 2 2 2
7 7 6 6 5 6 6 7 7 7 7 8 8 8 8 7 7 7 8 7 7 8 7 6 6 6 6 6 6 5 5 4 4 3 3 4 3 3 2 2 1 1 2
5 6 7 7 7 6 6 6 6 6 6 6 7 7 7 7 7 8 7 7 7 6 6 6 6 7 6 6 7 5 3 3 4 4 3 4 4 5 5 4 2 1 2
4 5 6 5 5 6 5 5 5 5 5 5 4 5 7 7 7 8 7 7 6 6 6 6 6 5 4 7 7 6 3 4 4 4 4 5 5 6 5 6 6 5 6
4 4 5 4 4 4 5 4 5 5 4 4 4 5 6 6 6 6 6 6 5 5 5 5 5 5 6 8 8 7 5 4 4 4 4 4 2 3 3 5 5 5 5
5 4 4 5 4 4 4 5 5 5 5 4 4 5 5 6 6 6 5 5 4 4 5 5 5 5 5 8 9 7 4 3 4 4 3 3 3 2 2 2 3 3 3
5 4 4 6 5 4 4 4 5 5 5 5 4 4 4 4 5 4 5 4 4 4 4 4 4 4 4 7 8 8 4 4 4 3 3 3 3 3 4 3 3 3 3
6 5 5 5 5 4 4 3 3 3 3 3 4 4 4 4 4 4 4 4 4 3 3 3 3 3 3 5 6 7 3 3 3 3 3 3 6 6 5 4 3 3 2
6 6 6 6 5 4 4 3 2 2 2 2 3 3 3 4 4 4 4 3 3 3 3 2 2 2 2 3 5 7 6 3 2 2 1 1 4 6 6 4 3 2 2
6 6 7 7 5 4 3 3 2 2 2 2 3 3 3 2 3 4 4 3 3 2 2 2 2 2 2 2 4 6 5 4 2 0 1 1 2 3 2 4 3 2 2
6 5 6 6 5 4 4 3 2 1 2 3 3 3 3 4 4 3 3 3 2 1 1 2 2 2 2 2 2 2 2 3 2 2 1 1 1 1 1 2 2 2 2
6 6 6 5 4 4 3 2 2 1 1 2 2 4 5 5 5 6 5 4 4 2 2 2 2 2 2 1 2 2 2 2 2 2 1 1 1 1 1 1 2 2 2
6 6 5 5 4 4 3 3 2 2 1 1 2 3 4 5 6 6 6 10 8 9 10 8 6 5 5 5 7 6 5 4 3 3 1 1 1 1 1 1 1 1 1
Wind_Direction
173 168 169 169 167 160 162 166 167 162 164 169 172 175 172 164 159 161 155 165 177 175 194 179 154 190 157 151 152 151 165 205 188 149 194 197 181 176 178 173 174 182 167
173 169 170 172 169 166 166 167 171 169 173 172 172 172 165 171 171 170 159 172 178 178 188 176 177 179 159 172 174 160 162 225 173 181 187 207 184 217 193 176 179 164 164
174 172 174 177 175 173 174 175 175 173 177 169 171 172 164 178 173 161 166 181 180 186 190 169 183 170 181 171 191 184 188 204 215 203 197 146 169 225 197 201 159 155 168
174 173 176 178 179 177 176 172 173 174 175 173 182 181 182 186 181 164 170 175 183 190 186 177 181 182 191 167 196 185 190 191 213 200 202 194 151 174 165 239 173 178 178
176 175 177 178 179 178 175 175 172 176 177 183 186 187 193 187 169 161 160 170 180 198 194 181 177 186 197 179 189 157 193 205 216 213 199 197 191 215 195 197 194 204 183
173 171 175 172 177 179 175 174 172 177 180 185 189 193 195 186 173 169 164 175 178 195 201 186 178 184 196 175 176 176 189 193 202 274 281 215 189 221 217 196 200 204 196
169 171 171 171 174 179 176 172 172 178 182 186 192 195 193 187 184 180 178 183 182 188 197 191 177 183 184 177 180 181 199 191 196 223 250 253 235 227 219 175 201 204 191
167 169 168 169 174 178 176 172 174 178 182 186 190 189 187 189 193 193 190 191 190 186 180 180 178 182 183 189 180 187 196 191 203 226 226 258 259 249 204 190 185 221 222
162 163 164 167 172 175 175 175 173 177 182 185 186 188 189 196 195 187 196 189 187 186 176 178 181 182 186 185 174 202 201 176 198 223 212 223 246 246 231 232 201 190 224
161 158 159 164 169 170 169 172 172 175 180 183 188 191 192 193 190 192 195 190 187 179 170 178 179 182 182 180 183 201 197 189 205 219 214 218 243 257 245 235 228 209 207
159 154 155 163 170 169 168 170 171 173 178 184 189 188 184 187 189 196 194 187 181 175 175 177 177 181 181 182 191 210 191 196 211 222 205 211 231 254 275 255 239 217 184
147 150 156 165 170 171 171 168 171 175 178 181 184 189 187 187 191 195 192 184 181 183 181 181 182 187 188 186 192 214 200 198 209 222 218 208 215 213 248 284 275 236 178
142 142 149 158 166 169 172 167 172 175 176 177 182 187 191 189 191 191 186 184 185 189 185 185 186 190 186 187 198 207 207 204 205 207 206 204 215 212 228 248 276 283 251
144 144 144 150 156 156 160 164 171 175 173 175 180 186 192 189 189 187 186 187 187 189 187 187 186 188 190 192 198 203 209 206 206 204 202 208 208 208 224 233 240 265 288
149 146 146 145 148 153 159 164 169 171 173 174 181 186 189 186 186 187 190 188 187 191 187 186 187 190 195 199 191 198 204 202 208 207 205 209 195 186 198 241 243 273 276
148 148 150 152 156 159 164 162 165 164 166 175 183 182 185 186 186 185 186 184 186 188 183 187 190 196 203 180 175 189 202 199 209 210 210 204 196 189 191 190 183 192 245
151 155 146 140 146 157 159 159 155 154 162 172 179 178 183 187 186 185 178 179 181 181 182 186 189 189 179 163 165 181 201 213 214 213 215 233 224 197 197 204 215 225 228
110 118 123 126 135 142 140 144 145 146 158 170 186 181 183 184 180 181 178 173 171 177 183 186 186 180 182 174 172 180 208 229 225 222 221 226 236 233 214 212 211 217 220
96 98 111 120 112 120 131 142 145 152 165 178 185 181 181 178 175 177 176 172 174 178 183 183 184 186 181 178 176 180 204 221 229 231 228 215 203 209 217 237 235 224 230
83 92 98 105 102 99 117 141 160 163 171 176 175 162 163 168 166 167 167 166 170 179 181 180 181 182 182 181 183 187 213 223 221 218 216 215 206 194 193 214 235 239 252
75 84 87 93 98 101 111 136 147 148 161 160 151 142 150 154 151 147 148 152 163 169 175 172 166 169 174 170 181 191 220 238 225 219 210 197 184 187 192 205 221 233 262
75 84 85 81 80 89 105 109 107 115 134 139 141 142 149 166 153 140 145 153 164 166 169 164 159 151 144 147 180 194 215 255 272 264 245 145 161 183 195 200 218 234 257
71 78 89 83 78 78 85 92 80 79 104 120 131 139 145 138 123 138 151 155 158 171 171 166 168 161 138 130 157 184 210 236 245 352 55 96 143 156 186 223 234 243 243
70 76 86 87 79 71 67 63 64 80 111 121 131 143 135 112 99 98 102 107 112 140 150 146 145 129 110 105 125 149 186 208 222 238 219 151 154 191 216 194 207 215 235
68 72 79 84 80 72 67 51 53 59 128 142 149 136 122 109 95 81 58 74 69 71 127 124 128 126 106 58 95 150 162 180 193 184 184 200 179 200 226 228 214 209 214
65 68 71 78 77 71 61 49 57 71 78 114 129 129 124 121 117 109 90 61 70 71 72 76 88 78 87 95 86 78 79 82 102 121 108 73 30 310 282 259 246 234 258